This is the latest recevied weather packets stored in our database for station/object SQ5LTL-2. If no packets are shown the sender has not sent any weather packets the latest 1 day(s).
| Time | Temp. | Humidity | Pressure | Rain* | Wind** | Luminosity | Snow |
|---|---|---|---|---|---|---|---|
| 1777986919 | 26.67° C | 23% | 1009.1 hPa | 0 mm | 1.79 m/s, 224° | 263 W/m² | - |
| 1777986617 | 26.67° C | 23% | 1009.2 hPa | 0 mm | 2.68 m/s, 202° | 292 W/m² | - |
| 1777986316 | 26.67° C | 24% | 1009.2 hPa | 0 mm | 2.24 m/s, 173° | 282 W/m² | - |
| 1777986035 | 27.22° C | 24% | 1009.2 hPa | 0 mm | 2.24 m/s, 197° | 278 W/m² | - |
| 1777985733 | 26.67° C | 23% | 1009.3 hPa | 0 mm | 2.24 m/s, 207° | 399 W/m² | - |
| 1777985433 | 27.22° C | 23% | 1009.2 hPa | 0 mm | 2.68 m/s, 199° | 429 W/m² | - |
| 1777985130 | 27.22° C | 23% | 1009.3 hPa | 0 mm | 2.68 m/s, 212° | 480 W/m² | - |
| 1777984829 | 27.22° C | 24% | 1009.5 hPa | 0 mm | 2.24 m/s, 172° | 519 W/m² | - |
| 1777984528 | 27.22° C | 22% | 1009.4 hPa | 0 mm | 2.24 m/s, 188° | 552 W/m² | - |
| 1777984227 | 26.67° C | 23% | 1009.5 hPa | 0 mm | 1.79 m/s, 175° | 560 W/m² | - |
| 1777983925 | 26.67° C | 23% | 1009.6 hPa | 0 mm | 1.79 m/s, 170° | 508 W/m² | - |
| 1777983623 | 26.67° C | 23% | 1009.6 hPa | 0 mm | 2.24 m/s, 188° | 375 W/m² | - |
| 1777983322 | 26.67° C | 23% | 1009.6 hPa | 0 mm | 3.13 m/s, 185° | 365 W/m² | - |
| 1777983021 | 26.67° C | 22% | 1009.6 hPa | 0 mm | 2.68 m/s, 187° | 456 W/m² | - |
| 1777982720 | 26.67° C | 23% | 1009.8 hPa | 0 mm | 2.24 m/s, 185° | 517 W/m² | - |
| 1777982418 | 27.22° C | 23% | 1009.7 hPa | 0 mm | 2.68 m/s, 189° | 523 W/m² | - |
| 1777982116 | 26.67° C | 23% | 1009.8 hPa | 0 mm | 2.24 m/s, 180° | 452 W/m² | - |
| 1777981836 | 26.67° C | 23% | 1009.9 hPa | 0 mm | 1.79 m/s, 183° | 514 W/m² | - |
| 1777981533 | 27.22° C | 23% | 1009.8 hPa | 0 mm | 2.24 m/s, 196° | 543 W/m² | - |
| 1777981231 | 26.67° C | 23% | 1009.9 hPa | 0 mm | 2.24 m/s, 187° | 536 W/m² | - |
| 1777980931 | 27.22° C | 24% | 1009.9 hPa | 0 mm | 2.24 m/s, 199° | 541 W/m² | - |
| 1777980628 | 26.67° C | 24% | 1009.9 hPa | 0 mm | 1.79 m/s, 195° | 522 W/m² | - |
| 1777980328 | 26.67° C | 24% | 1010 hPa | 0 mm | 2.68 m/s, 190° | 482 W/m² | - |
| 1777980027 | 27.22° C | 24% | 1010.1 hPa | 0 mm | 2.24 m/s, 194° | 544 W/m² | - |
| 1777979724 | 27.22° C | 25% | 1009.9 hPa | 0 mm | 1.79 m/s, 205° | 553 W/m² | - |
* Rain latest hour (hover to see other rain measurements)
** Current wind speed in m/s (hover to see current wind gust speed)